[[{"header":{"parameterUnit":"m.s-1","parameterCategory":2,"la1":30.2991,"la2":30.254,"lo1":-89.0895,"lo2":-89.0444,"dy":0.0017,"dx":0.0017,"nx":28,"ny":28,"refTime":"2024-10-04T21:00:00:Z","depth":"0","parameterNumber":2,"parameterNumberName":"U-component_of_CURRENTS"},"data":[0,0,0,0,0,0,0,0,0,0,0,0,0,0,0,0,0,0,0,0,0,0,0,0,0,0,0,0,0,0,0,0,0,0,0,0,0,0,0,0,0,0,0,0,0,0,0,0,0,0,0,0,0,0,0,0,0,0,-0.2301,-0.2301,0,-0.2312,-0.2312,-0.2312,-0.2277,-0.2276,-0.2275,-0.2275,-0.2241,-0.2241,-0.2241,0,0,0,0,0,0,0,0,0,0,0,0,0,-0.2224,-0.2225,-0.2301,-0.2301,-0.2302,-0.2312,-0.2312,-0.2312,-0.2277,-0.2276,-0.2275,-0.2274,-0.2241,-0.2241,-0.2241,0,0,0,0,0,0,0,0,0,0,0,0,0,-0.2245,-0.2226,-0.23,-0.2288,-0.2288,-0.2312,-0.2312,-0.2312,-0.2277,-0.2276,-0.2275,-0.2274,-0.2242,-0.2241,-0.2241,-0.226,0,0,-0.224,-0.224,0,0,0,0,0,0,0,0,-0.2244,-0.2247,-0.229,-0.2289,-0.2289,-0.2295,-0.2273,-0.2294,-0.2277,-0.2277,-0.2275,-0.2273,-0.2259,-0.2257,-0.2256,-0.2259,-0.2257,-0.224,-0.224,-0.2239,-0.2239,0,0,0,0,0,0,0,-0.2242,-0.2246,-0.2301,-0.229,-0.229,-0.2274,-0.2276,-0.2277,-0.227,-0.2277,-0.2275,-0.2283,-0.2257,-0.2257,-0.2255,-0.2257,-0.224,-0.224,-0.2239,-0.2239,-0.228,-0.2281,0,0,0,0,0,0,-0.2252,-0.2246,-0.2301,-0.2302,-0.2268,-0.2277,-0.2279,-0.2291,-0.2271,-0.2268,-0.2284,-0.2282,-0.2258,-0.2256,-0.2254,-0.2287,-0.2239,-0.2239,-0.2239,-0.2278,-0.228,-0.2281,0,0,0,0,0,0,-0.225,-0.2257,-0.23,-0.2276,-0.2281,-0.228,-0.2294,-0.2292,-0.2291,-0.2278,-0.2273,-0.2286,-0.2257,-0.2254,-0.2261,-0.2285,-0.2239,-0.2239,-0.2277,-0.2279,-0.2281,-0.2345,0,0,0,0,0,0,-0.2248,-0.2256,-0.2266,-0.2278,-0.2283,-0.2326,-0.2295,-0.2293,-0.23,-0.2297,-0.2278,-0.2274,-0.2256,-0.2262,-0.2261,-0.2283,-0.2238,-0.2275,-0.2278,-0.228,-0.2342,-0.2349,-0.2356,0,0,0,0,0,-0.2245,-0.2267,-0.2266,-0.2273,-0.2298,-0.2328,-0.233,-0.2321,-0.2301,-0.2313,-0.2297,-0.2274,-0.2276,-0.2263,-0.2261,-0.2284,-0.2274,-0.2277,-0.228,-0.2338,-0.2348,-0.2356,0,0,0,0,0,0,-0.2237,-0.2266,-0.2265,-0.2294,-0.2315,-0.2324,-0.2332,-0.2328,-0.2324,-0.2314,-0.229,-0.2286,-0.2302,-0.2287,-0.2272,-0.2304,-0.2272,-0.2275,-0.2317,-0.2325,-0.2332,-0.2338,-0.2238,0,0,0,0,0,-0.2243,-0.2262,-0.229,-0.231,-0.2324,-0.2328,-0.2337,-0.2336,-0.2338,-0.2334,-0.2323,-0.2312,-0.2315,-0.2314,-0.2313,-0.233,-0.232,-0.2344,-0.2351,-0.2357,-0.2362,-0.2365,-0.2373,-0.2291,-0.2291,-0.2291,0,0,-0.2244,-0.2262,-0.2272,-0.2309,-0.2318,-0.2352,-0.2329,-0.235,-0.2374,-0.2332,-0.235,-0.2338,-0.2326,-0.2346,-0.2351,-0.2333,-0.238,-0.2361,-0.2366,-0.2367,-0.2369,-0.2377,-0.2384,-0.2293,-0.2292,-0.2292,0,0,-0.226,-0.2274,-0.2299,-0.2325,-0.2355,-0.2365,-0.2376,-0.2394,-0.2397,-0.2418,-0.2395,-0.2399,-0.2399,-0.24,-0.2398,-0.2446,-0.2419,-0.2444,-0.2482,-0.2486,-0.2493,-0.2498,-0.2513,-0.252,-0.2445,-0.2445,-0.2445,0,-0.226,-0.2297,-0.2311,-0.2348,-0.2372,-0.2376,-0.2414,-0.2428,-0.2444,-0.2454,-0.2431,-0.2443,-0.2428,-0.2459,-0.2469,-0.2463,-0.2459,-0.245,-0.2495,-0.25,-0.2505,-0.2518,-0.2525,-0.2449,-0.2448,-0.2448,-0.2448,0,-0.2301,-0.2333,-0.2351,-0.2399,-0.2429,-0.246,-0.2492,-0.2514,-0.2511,-0.252,-0.2546,-0.2529,-0.2531,-0.2534,-0.2511,-0.2545,-0.2531,-0.2505,-0.2472,-0.2517,-0.2529,-0.2534,-0.2454,-0.2452,-0.2451,-0.245,0,0,-0.2286,-0.2365,-0.2368,-0.2399,-0.2457,-0.2484,-0.2535,-0.2581,-0.2608,-0.2616,-0.2648,-0.2649,-0.2627,-0.2624,-0.2604,-0.2606,-0.2636,-0.2568,-0.2566,-0.2582,-0.2653,-0.2661,-0.2667,-0.2611,-0.2612,-0.2613,-0.2654,0,-0.2309,-0.2379,-0.2418,-0.2482,-0.252,-0.2556,-0.2605,-0.2646,-0.2664,-0.2698,-0.2693,-0.2708,-0.2667,-0.2662,-0.2662,-0.2638,-0.265,-0.2628,-0.2608,-0.2608,-0.2608,-0.2673,-0.2603,-0.2634,-0.2659,-0.266,-0.266,0,-0.2329,-0.2376,-0.2441,-0.2524,-0.2545,-0.2584,-0.2653,-0.2698,-0.2752,-0.2767,-0.2783,-0.2775,-0.2786,-0.2738,-0.2733,-0.2717,-0.2692,-0.2675,-0.2676,-0.2662,-0.2625,-0.259,-0.2643,-0.2625,-0.2668,-0.2667,-0.2667,0,-0.2294,-0.2387,-0.2434,-0.2464,-0.2561,-0.2593,-0.2639,-0.2705,-0.2748,-0.28,-0.2829,-0.284,-0.2842,-0.2816,-0.278,-0.2751,-0.2779,-0.2731,-0.2727,-0.2727,-0.2654,-0.2647,-0.2683,-0.274,-0.2739,-0.2739,-0.2739,0,-0.2295,-0.2331,-0.2418,-0.2443,-0.2501,-0.2574,-0.2632,-0.2686,-0.2763,-0.2817,-0.2845,-0.2885,-0.2857,-0.2868,-0.282,-0.2804,-0.2811,-0.2755,-0.2744,-0.2678,-0.2672,-0.2641,-0.2625,-0.2741,-0.274,-0.274,-0.274,0,-0.224,-0.2302,-0.2356,-0.2453,-0.2482,-0.2515,-0.2619,-0.2664,-0.2746,-0.282,-0.2839,-0.2916,-0.2932,-0.2924,-0.2899,-0.2862,-0.2803,-0.2833,-0.2769,-0.2751,-0.2713,-0.2703,-0.2699,-0.2635,-0.2828,-0.2828,-0.2829,0,-0.2218,-0.2237,-0.2332,-0.2359,-0.2397,-0.2462,-0.2511,-0.2625,-0.2683,-0.2835,-0.2868,-0.2938,-0.2982,-0.2987,-0.2938,-0.2902,-0.283,-0.2809,-0.274,-0.2729,-0.2709,-0.2674,-0.2617,-0.2672,-0.2671,-0.267,-0.2669,0,-0.2161,-0.2186,-0.223,-0.2282,-0.2332,-0.2399,-0.2482,-0.2536,-0.268,-0.2764,-0.2882,-0.2942,-0.3,-0.2964,-0.2945,-0.2882,-0.2748,-0.2794,-0.2786,-0.2608,-0.2566,-0.2493,-0.2641,-0.2663,-0.2664,-0.2664,-0.2664,-0.2665,-0.2098,-0.2104,-0.215,-0.2192,-0.2251,-0.2312,-0.2323,-0.2449,-0.2543,-0.2663,-0.2807,-0.2897,-0.2939,-0.2912,-0.2869,-0.2761,-0.2733,-0.2657,-0.2653,-0.2626,-0.2544,-0.2701,-0.2709,-0.271,-0.2711,-0.2712,-0.2712,0,-0.2008,-0.2024,-0.2057,-0.2101,-0.2114,-0.2187,-0.2278,-0.2281,-0.2352,-0.2538,-0.2639,-0.2808,-0.2789,-0.2802,-0.2745,-0.265,-0.2545,-0.2559,-0.2475,-0.2425,-0.2566,-0.2539,-0.2507,-0.2507,-0.2507,-0.2507,-0.2507,-0.2507,-0.196,-0.1949,-0.1967,-0.1946,-0.197,-0.1941,-0.1962,-0.2008,-0.2103,-0.2253,-0.242,-0.2615,-0.2648,-0.2822,-0.2709,-0.2582,-0.2463,-0.2399,-0.2389,-0.2483,-0.249,-0.2498,-0.247,-0.2424,-0.2423,-0.2178,-0.2177,-0.2175]},{"header":{"parameterUnit":"m.s-1","parameterCategory":2,"la1":30.2991,"la2":30.254,"lo1":-89.0895,"lo2":-89.0444,"dy":0.0017,"dx":0.0017,"nx":28,"ny":28,"refTime":"2024-10-04T21:00:00:Z","depth":"0","parameterNumber":3,"parameterNumberName":"V-component_of_CURRENTS"},"data":[0,0,0,0,0,0,0,0,0,0,0,0,0,0,0,0,0,0,0,0,0,0,0,0,0,0,0,0,0,0,0,0,0,0,0,0,0,0,0,0,0,0,0,0,0,0,0,0,0,0,0,0,0,0,0,0,0,0,-0.0134,-0.0133,0,-0.0059,-0.0058,-0.0057,-0.0012,-0.0012,-0.0012,-0.0011,0.0087,0.009,0.0092,0,0,0,0,0,0,0,0,0,0,0,0,0,-0.0184,-0.0184,-0.0134,-0.0133,-0.0132,-0.0059,-0.0058,-0.0057,-0.0012,-0.0012,-0.0012,-0.0011,0.0087,0.009,0.0092,0,0,0,0,0,0,0,0,0,0,0,0,0,-0.0141,-0.0183,-0.0134,-0.0101,-0.0097,-0.0059,-0.0058,-0.0056,-0.0012,-0.0012,-0.0012,-0.0011,0.0086,0.0089,0.0093,0.011,0,0,0.0104,0.0106,0,0,0,0,0,0,0,0,-0.0143,-0.0139,-0.0107,-0.0103,-0.0099,-0.0045,-0.0039,0.0,-0.0012,-0.0044,-0.0011,-0.0011,0.0045,0.0052,0.0066,0.0115,0.0119,0.0105,0.0107,0.0108,0.0109,0,0,0,0,0,0,0,-0.0146,-0.0142,-0.0104,-0.0106,-0.0101,-0.0071,-0.0065,-0.0031,-0.0001,-0.0041,-0.0038,-0.003,0.0047,0.0062,0.0068,0.0121,0.0104,0.0108,0.011,0.0111,0.0201,0.0201,0,0,0,0,0,0,-0.0159,-0.0145,-0.0106,-0.0102,-0.0121,-0.0071,-0.0064,-0.0062,-0.0002,0.0007,-0.0031,-0.0028,0.0056,0.0064,0.0072,0.0101,0.0108,0.0112,0.0114,0.0201,0.0201,0.0201,0,0,0,0,0,0,-0.0161,-0.0157,-0.0109,-0.0121,-0.0113,-0.0071,-0.0069,-0.0061,-0.0047,0.0006,0.0016,-0.0024,0.0056,0.0067,0.0102,0.0105,0.0113,0.0117,0.0201,0.0201,0.0201,0.0155,0,0,0,0,0,0,-0.0163,-0.0158,-0.0162,-0.0122,-0.0113,-0.0094,-0.0069,-0.006,-0.0042,-0.0039,0.0014,0.0024,0.0057,0.0096,0.0106,0.011,0.012,0.02,0.0201,0.0201,0.0156,0.0153,0.0151,0,0,0,0,0,-0.0165,-0.0174,-0.0163,-0.0158,-0.012,-0.0095,-0.0087,-0.0055,-0.0042,-0.0041,-0.0001,0.0022,0.0105,0.0099,0.011,0.0116,0.02,0.0201,0.0201,0.0157,0.0154,0.0151,0,0,0,0,0,0,-0.0199,-0.0169,-0.0156,-0.0156,-0.0131,-0.0087,-0.0083,-0.006,-0.0028,-0.0025,0.0025,0.0038,0.0069,0.0098,0.0091,0.0142,0.0156,0.0159,0.0119,0.0117,0.0114,0.01,0.0123,0,0,0,0,0,-0.0209,-0.0209,-0.0173,-0.0175,-0.0164,-0.0125,-0.0111,-0.0089,-0.0055,-0.004,-0.0001,0.0041,0.008,0.0101,0.0137,0.0165,0.0198,0.0176,0.0173,0.0171,0.0167,0.0221,0.0223,0.0202,0.0202,0.0202,0,0,-0.0223,-0.0207,-0.0207,-0.0182,-0.016,-0.0152,-0.0116,-0.0101,-0.0088,-0.0034,-0.0008,0.0032,0.0085,0.0117,0.0133,0.0141,0.0194,0.0171,0.0169,0.0167,0.0221,0.0223,0.0225,0.0202,0.0202,0.0202,0,0,-0.0257,-0.0238,-0.0251,-0.0232,-0.0205,-0.0176,-0.0175,-0.0134,-0.0109,-0.0079,-0.0035,0.0008,0.006,0.0104,0.0132,0.0138,0.0177,0.0145,0.0125,0.0177,0.0179,0.0181,0.0221,0.0227,0.0146,0.0146,0.0146,0,-0.0277,-0.0287,-0.025,-0.0256,-0.0246,-0.0192,-0.0201,-0.0165,-0.0116,-0.0095,-0.008,0.0014,0.0057,0.0109,0.011,0.0132,0.0161,0.0131,0.0173,0.0176,0.0179,0.0219,0.0227,0.0144,0.0144,0.0144,0.0144,0,-0.0317,-0.0324,-0.0329,-0.0318,-0.03,-0.03,-0.0248,-0.0221,-0.0184,-0.0145,-0.0088,-0.0022,0.0034,0.0056,0.0085,0.013,0.0142,0.0161,0.0177,0.0178,0.0221,0.0229,0.0141,0.0141,0.0142,0.0143,0,0,-0.0367,-0.0362,-0.0364,-0.0376,-0.0335,-0.033,-0.0298,-0.0256,-0.0237,-0.0172,-0.014,-0.006,-0.0019,0.0016,0.0067,0.0114,0.0162,0.0139,0.0143,0.0172,0.0266,0.032,0.0335,0.0185,0.0186,0.0187,0.0285,0,-0.0413,-0.0451,-0.0423,-0.0449,-0.0465,-0.0402,-0.038,-0.033,-0.0272,-0.0224,-0.0132,-0.0085,-0.0034,-0.0009,0.0049,0.0134,0.0182,0.0133,0.0266,0.027,0.0314,0.0346,0.0392,0.0488,0.0294,0.0295,0.0297,0,-0.0462,-0.0483,-0.0523,-0.0526,-0.0525,-0.052,-0.0475,-0.0447,-0.0351,-0.0306,-0.0226,-0.0154,-0.0061,-0.0027,0.0127,0.0091,0.0169,0.0236,0.0242,0.0314,0.0341,0.0458,0.0511,0.0692,0.031,0.0309,0.0308,0,-0.0529,-0.0551,-0.0591,-0.0591,-0.0577,-0.0573,-0.0553,-0.0475,-0.0455,-0.0354,-0.0326,-0.0199,-0.014,-0.0016,0.0138,0.0127,0.0304,0.031,0.0434,0.0438,0.0517,0.0526,0.0757,0.0411,0.0411,0.041,0.041,0,-0.0591,-0.0622,-0.0628,-0.0652,-0.0693,-0.0646,-0.0656,-0.0608,-0.0539,-0.0519,-0.038,-0.0329,-0.0137,-0.0005,0.0127,0.032,0.0304,0.0441,0.0476,0.0502,0.0508,0.0699,0.075,0.0414,0.0413,0.0413,0.0412,0,-0.0657,-0.0659,-0.0713,-0.0724,-0.073,-0.0757,-0.0747,-0.0748,-0.0663,-0.0627,-0.06,-0.0427,-0.0241,-0.0036,0.0176,0.0304,0.0585,0.0546,0.0562,0.0598,0.0874,0.0917,0.1145,0.1208,0.0696,0.0698,0.07,0,-0.0694,-0.0728,-0.0782,-0.0826,-0.0835,-0.0863,-0.0884,-0.0823,-0.0819,-0.0686,-0.068,-0.0482,-0.033,0.0026,0.0301,0.0572,0.0678,0.0753,0.0748,0.0915,0.0989,0.1015,0.1052,0.0831,0.0833,0.0835,0.0837,0,-0.0766,-0.0783,-0.0831,-0.0929,-0.0975,-0.1026,-0.1044,-0.1055,-0.0968,-0.0913,-0.0798,-0.0656,-0.0262,0.0095,0.0475,0.0634,0.088,0.0804,0.0986,0.1128,0.1163,0.1231,0.0728,0.0857,0.0855,0.0853,0.0852,0.0851,-0.0815,-0.0873,-0.0945,-0.1035,-0.1101,-0.1173,-0.1212,-0.1206,-0.1193,-0.1078,-0.0909,-0.0655,-0.0082,0.0479,0.0671,0.1124,0.1048,0.1248,0.129,0.1303,0.1371,0.0906,0.1067,0.1067,0.1066,0.1066,0.1065,0,-0.0878,-0.0949,-0.1048,-0.1157,-0.1255,-0.126,-0.1313,-0.1336,-0.1328,-0.1142,-0.0984,-0.0343,0.021,0.0728,0.1386,0.1612,0.1626,0.1717,0.1779,0.179,0.1408,0.1424,0.1661,0.166,0.166,0.166,0.166,0.166,-0.0916,-0.1025,-0.1087,-0.1272,-0.1347,-0.1451,-0.1483,-0.1491,-0.1389,-0.1093,-0.0726,-0.0415,0.0394,0.1468,0.2062,0.2096,0.2239,0.2231,0.2289,0.2054,0.2014,0.1975,0.2008,0.2363,0.2364,0.2661,0.2664,0.2667]}],[{"header":{"parameterUnit":"m.s-1","parameterCategory":2,"la1":30.2991,"la2":30.254,"lo1":-89.0895,"lo2":-89.0444,"dy":0.0017,"dx":0.0017,"nx":28,"ny":28,"refTime":"2024-10-04T21:00:00:Z","depth":"2","parameterNumber":2,"parameterNumberName":"U-component_of_CURRENTS"},"data":[0,0,0,0,0,0,0,0,0,0,0,0,0,0,0,0,0,0,0,0,0,0,0,0,0,0,0,0,0,0,0,0,0,0,0,0,0,0,0,0,0,0,0,0,0,0,0,0,0,0,0,0,0,0,0,0,0,0,-0.2119,-0.212,0,-0.2133,-0.2133,-0.2133,-0.2104,-0.2103,-0.2103,-0.2102,-0.2075,-0.2075,-0.2075,0,0,0,0,0,0,0,0,0,0,0,0,0,-0.2044,-0.2045,-0.2119,-0.212,-0.212,-0.2133,-0.2133,-0.2133,-0.2104,-0.2103,-0.2103,-0.2102,-0.2075,-0.2075,-0.2075,0,0,0,0,0,0,0,0,0,0,0,0,0,-0.2065,-0.2046,-0.2119,-0.2111,-0.211,-0.2133,-0.2133,-0.2133,-0.2104,-0.2103,-0.2102,-0.2102,-0.2075,-0.2075,-0.2075,-0.209,0,0,-0.2074,-0.2074,0,0,0,0,0,0,0,0,-0.2064,-0.2068,-0.2111,-0.2111,-0.2111,-0.2119,-0.2097,-0.2118,-0.2104,-0.2102,-0.2102,-0.2101,-0.2089,-0.2088,-0.2087,-0.2089,-0.2088,-0.2074,-0.2074,-0.2074,-0.2073,0,0,0,0,0,0,0,-0.2063,-0.2067,-0.2121,-0.2112,-0.2112,-0.2098,-0.21,-0.21,-0.2097,-0.2102,-0.2101,-0.2109,-0.2088,-0.2088,-0.2086,-0.2087,-0.2074,-0.2074,-0.2073,-0.2073,-0.2115,-0.2116,0,0,0,0,0,0,-0.2072,-0.2066,-0.212,-0.2122,-0.2089,-0.21,-0.2102,-0.2114,-0.2098,-0.2096,-0.211,-0.2108,-0.2089,-0.2087,-0.2085,-0.2121,-0.2074,-0.2073,-0.2073,-0.2114,-0.2115,-0.2117,0,0,0,0,0,0,-0.207,-0.2076,-0.212,-0.2096,-0.2102,-0.2103,-0.2117,-0.2115,-0.2118,-0.2105,-0.2101,-0.2115,-0.2088,-0.2086,-0.2095,-0.2119,-0.2073,-0.2073,-0.2112,-0.2114,-0.2116,-0.2182,0,0,0,0,0,0,-0.2068,-0.2076,-0.2086,-0.2098,-0.2103,-0.2146,-0.2118,-0.2116,-0.2126,-0.2123,-0.2108,-0.2104,-0.2087,-0.2095,-0.2094,-0.2118,-0.2073,-0.2111,-0.2113,-0.2115,-0.2178,-0.2185,-0.2192,0,0,0,0,0,-0.2065,-0.2086,-0.2087,-0.2094,-0.2119,-0.2148,-0.215,-0.2144,-0.2127,-0.214,-0.2126,-0.2105,-0.211,-0.2096,-0.2095,-0.2119,-0.2109,-0.2112,-0.2115,-0.2175,-0.2184,-0.2192,0,0,0,0,0,0,-0.2058,-0.2086,-0.2087,-0.2115,-0.2136,-0.2145,-0.2154,-0.2152,-0.2151,-0.2143,-0.2121,-0.2118,-0.2136,-0.212,-0.2106,-0.2139,-0.2107,-0.2109,-0.2152,-0.2161,-0.2168,-0.2173,-0.2072,0,0,0,0,0,-0.2064,-0.2083,-0.2111,-0.2131,-0.2145,-0.215,-0.216,-0.2161,-0.2164,-0.2162,-0.2153,-0.2144,-0.2148,-0.2148,-0.2147,-0.2165,-0.2156,-0.218,-0.2187,-0.2193,-0.2197,-0.2202,-0.221,-0.2126,-0.2126,-0.2126,0,0,-0.2065,-0.2084,-0.2093,-0.213,-0.214,-0.2173,-0.2153,-0.2175,-0.2199,-0.216,-0.2181,-0.217,-0.2159,-0.2179,-0.2186,-0.2168,-0.2216,-0.2197,-0.2202,-0.2203,-0.2206,-0.2214,-0.2221,-0.2128,-0.2128,-0.2127,0,0,-0.2082,-0.2097,-0.2122,-0.2148,-0.2178,-0.2188,-0.22,-0.2219,-0.2224,-0.2247,-0.2226,-0.2232,-0.2234,-0.2234,-0.2233,-0.2281,-0.2255,-0.228,-0.2318,-0.2324,-0.233,-0.2336,-0.2351,-0.2357,-0.2282,-0.2282,-0.2282,0,-0.2083,-0.2119,-0.2134,-0.217,-0.2194,-0.22,-0.2237,-0.2252,-0.227,-0.2281,-0.2261,-0.2276,-0.2262,-0.2293,-0.2304,-0.2298,-0.2296,-0.2286,-0.2333,-0.2338,-0.2343,-0.2356,-0.2363,-0.2285,-0.2285,-0.2284,-0.2284,0,-0.2123,-0.2155,-0.2173,-0.222,-0.225,-0.2281,-0.2313,-0.2336,-0.2337,-0.2347,-0.2375,-0.236,-0.2364,-0.2368,-0.2346,-0.2381,-0.2368,-0.2342,-0.231,-0.2355,-0.2367,-0.2372,-0.229,-0.2289,-0.2288,-0.2287,0,0,-0.2111,-0.2187,-0.2191,-0.2221,-0.2278,-0.2304,-0.2355,-0.24,-0.2428,-0.244,-0.2473,-0.2476,-0.2458,-0.2456,-0.2437,-0.2441,-0.2473,-0.2406,-0.2404,-0.2419,-0.2493,-0.2496,-0.2501,-0.2451,-0.2452,-0.2453,-0.2494,0,-0.2135,-0.2202,-0.2239,-0.2301,-0.2338,-0.2374,-0.2422,-0.2463,-0.2484,-0.2519,-0.2516,-0.2534,-0.2496,-0.2495,-0.2496,-0.2475,-0.2488,-0.2465,-0.2448,-0.2448,-0.2443,-0.2508,-0.2298,-0.2317,-0.2499,-0.2499,-0.25,0,-0.2155,-0.2199,-0.2263,-0.2342,-0.2362,-0.2401,-0.247,-0.2515,-0.2569,-0.2586,-0.2606,-0.26,-0.2614,-0.257,-0.2568,-0.2553,-0.2531,-0.2515,-0.2516,-0.2496,-0.246,-0.2298,-0.2319,-0.2509,-0.2508,-0.2507,-0.2507,0,-0.2122,-0.2212,-0.2258,-0.2286,-0.238,-0.2413,-0.2458,-0.2524,-0.2566,-0.2621,-0.265,-0.2665,-0.267,-0.2648,-0.2616,-0.2588,-0.2617,-0.2572,-0.2564,-0.2564,-0.2372,-0.2354,-0.2582,-0.2582,-0.2582,-0.2581,-0.2581,0,-0.2124,-0.216,-0.2244,-0.2269,-0.2326,-0.2397,-0.2456,-0.2508,-0.2585,-0.2638,-0.2669,-0.2708,-0.2687,-0.2699,-0.2655,-0.2639,-0.2648,-0.259,-0.258,-0.2392,-0.2377,-0.2521,-0.2514,-0.2583,-0.2583,-0.2582,-0.2582,0,-0.2074,-0.2133,-0.2187,-0.228,-0.2309,-0.2343,-0.2446,-0.2489,-0.2572,-0.2645,-0.2665,-0.274,-0.2759,-0.2753,-0.2732,-0.2694,-0.2673,-0.2665,-0.2461,-0.2427,-0.2605,-0.26,-0.2656,-0.2657,-0.2657,-0.2658,-0.2658,0,-0.2054,-0.2074,-0.2166,-0.2192,-0.223,-0.2296,-0.2343,-0.2455,-0.251,-0.2659,-0.269,-0.2761,-0.2798,-0.2803,-0.274,-0.27,-0.2708,-0.2489,-0.2403,-0.2631,-0.2616,-0.261,-0.2605,-0.2171,-0.2167,-0.2164,-0.2162,0,-0.2002,-0.2028,-0.207,-0.2121,-0.2169,-0.2234,-0.2314,-0.2365,-0.2506,-0.2584,-0.2696,-0.2749,-0.2788,-0.267,-0.2643,-0.2568,-0.2478,-0.2431,-0.2706,-0.2205,-0.2182,-0.2165,-0.2173,-0.2135,-0.2138,-0.214,-0.2141,-0.2142,-0.1945,-0.1951,-0.1995,-0.2036,-0.2093,-0.2149,-0.2159,-0.2272,-0.2358,-0.2449,-0.2594,-0.2605,-0.2597,-0.2466,-0.2362,-0.2255,-0.2408,-0.2253,-0.2257,-0.2266,-0.2223,-0.2205,-0.2154,-0.2156,-0.2159,-0.2161,-0.2162,0,-0.1859,-0.1876,-0.1908,-0.1949,-0.1958,-0.2031,-0.2114,-0.2098,-0.2153,-0.2276,-0.2351,-0.2176,-0.2147,-0.2122,-0.1953,-0.194,-0.1855,-0.1821,-0.1694,-0.1723,-0.1749,-0.1674,-0.1462,-0.146,-0.1457,-0.1456,0,0,-0.1814,-0.1802,-0.1817,-0.1794,-0.1819,-0.1785,-0.1803,-0.1809,-0.1849,-0.1846,-0.1859,-0.2059,-0.2107,-0.1798,-0.172,-0.157,-0.1615,-0.1485,-0.205,-0.1931,-0.1953,-0.2008,-0.1931,0,0,0,0,0]},{"header":{"parameterUnit":"m.s-1","parameterCategory":2,"la1":30.2991,"la2":30.254,"lo1":-89.0895,"lo2":-89.0444,"dy":0.0017,"dx":0.0017,"nx":28,"ny":28,"refTime":"2024-10-04T21:00:00:Z","depth":"2","parameterNumber":3,"parameterNumberName":"V-component_of_CURRENTS"},"data":[0,0,0,0,0,0,0,0,0,0,0,0,0,0,0,0,0,0,0,0,0,0,0,0,0,0,0,0,0,0,0,0,0,0,0,0,0,0,0,0,0,0,0,0,0,0,0,0,0,0,0,0,0,0,0,0,0,0,-0.0135,-0.0135,0,-0.0062,-0.0061,-0.0061,-0.0016,-0.0016,-0.0016,-0.0015,0.0082,0.0084,0.0087,0,0,0,0,0,0,0,0,0,0,0,0,0,-0.0181,-0.0181,-0.0135,-0.0135,-0.0134,-0.0062,-0.0061,-0.006,-0.0016,-0.0016,-0.0015,-0.0015,0.0081,0.0084,0.0087,0,0,0,0,0,0,0,0,0,0,0,0,0,-0.014,-0.0181,-0.0136,-0.0103,-0.01,-0.0063,-0.0061,-0.006,-0.0016,-0.0016,-0.0015,-0.0015,0.008,0.0084,0.0087,0.0104,0,0,0.0098,0.01,0,0,0,0,0,0,0,0,-0.0142,-0.0138,-0.0109,-0.0105,-0.0101,-0.0048,-0.0042,-0.0004,-0.0016,-0.0047,-0.0015,-0.0015,0.004,0.0047,0.006,0.0108,0.0112,0.0099,0.0101,0.0102,0.0103,0,0,0,0,0,0,0,-0.0145,-0.0141,-0.0106,-0.0108,-0.0103,-0.0073,-0.0068,-0.0034,-0.0005,-0.0045,-0.0041,-0.0034,0.0043,0.0057,0.0063,0.0114,0.0099,0.0102,0.0104,0.0105,0.0192,0.0192,0,0,0,0,0,0,-0.0158,-0.0144,-0.0108,-0.0104,-0.0122,-0.0073,-0.0066,-0.0065,-0.0006,0.0003,-0.0034,-0.0032,0.005,0.0059,0.0067,0.0093,0.0102,0.0106,0.0108,0.0191,0.0192,0.0192,0,0,0,0,0,0,-0.0159,-0.0156,-0.0111,-0.0122,-0.0114,-0.0073,-0.0072,-0.0064,-0.005,0.0001,0.0011,-0.0028,0.0051,0.0062,0.0096,0.0097,0.0107,0.0111,0.0191,0.0191,0.0192,0.0144,0,0,0,0,0,0,-0.0161,-0.0157,-0.0161,-0.0123,-0.0114,-0.0097,-0.0072,-0.0063,-0.0046,-0.0042,0.001,0.0019,0.0052,0.009,0.0099,0.0102,0.0113,0.0191,0.0191,0.0192,0.0145,0.0142,0.014,0,0,0,0,0,-0.0163,-0.0173,-0.0162,-0.0158,-0.0121,-0.0098,-0.0091,-0.0059,-0.0046,-0.0045,-0.0006,0.0018,0.0098,0.0093,0.0104,0.0108,0.0191,0.0191,0.0192,0.0146,0.0143,0.014,0,0,0,0,0,0,-0.0197,-0.0169,-0.0156,-0.0157,-0.0132,-0.0091,-0.0087,-0.0064,-0.0032,-0.0029,0.002,0.0032,0.0063,0.0092,0.0085,0.0134,0.0148,0.0151,0.011,0.0107,0.0105,0.0091,0.0116,0,0,0,0,0,-0.0206,-0.0207,-0.0173,-0.0175,-0.0165,-0.0127,-0.0113,-0.0092,-0.0059,-0.0044,-0.0006,0.0035,0.0072,0.0093,0.0128,0.0155,0.0188,0.0165,0.0162,0.0159,0.0156,0.0209,0.0211,0.0193,0.0193,0.0193,0,0,-0.022,-0.0205,-0.0206,-0.0182,-0.0161,-0.0154,-0.0118,-0.0104,-0.0092,-0.0039,-0.0014,0.0026,0.0077,0.0107,0.0123,0.0132,0.0182,0.016,0.0157,0.0156,0.021,0.0212,0.0213,0.0193,0.0193,0.0193,0,0,-0.0254,-0.0236,-0.025,-0.0232,-0.0205,-0.0178,-0.0177,-0.0137,-0.0113,-0.0084,-0.0041,-0.0,0.0051,0.0093,0.012,0.0124,0.0164,0.0132,0.0111,0.0162,0.0164,0.0166,0.0207,0.0213,0.0132,0.0132,0.0132,0,-0.0274,-0.0284,-0.0249,-0.0255,-0.0246,-0.0193,-0.0203,-0.0169,-0.0121,-0.01,-0.0085,0.0005,0.0046,0.0096,0.0096,0.0118,0.0148,0.0117,0.0158,0.0161,0.0164,0.0206,0.0213,0.013,0.013,0.0131,0.0131,0,-0.0314,-0.032,-0.0326,-0.0316,-0.0299,-0.0299,-0.025,-0.0224,-0.0189,-0.0151,-0.0097,-0.0033,0.0021,0.0043,0.0071,0.0113,0.0128,0.0146,0.0163,0.0163,0.0207,0.0215,0.0127,0.0128,0.0128,0.0129,0,0,-0.0363,-0.0358,-0.036,-0.0371,-0.0333,-0.0328,-0.0299,-0.0259,-0.0241,-0.0179,-0.0148,-0.0073,-0.0032,0.0001,0.0051,0.0097,0.0144,0.0123,0.0127,0.0158,0.025,0.0298,0.0312,0.0168,0.0169,0.017,0.027,0,-0.0407,-0.0444,-0.0418,-0.0443,-0.0458,-0.0398,-0.0379,-0.0331,-0.0275,-0.0229,-0.0141,-0.0096,-0.0048,-0.0024,0.0033,0.0117,0.0165,0.0115,0.0251,0.0255,0.0293,0.0323,0.028,0.037,0.0279,0.028,0.0281,0,-0.0454,-0.0475,-0.0514,-0.0516,-0.0515,-0.0512,-0.0469,-0.0443,-0.0351,-0.0308,-0.0231,-0.0161,-0.0073,-0.0039,0.0111,0.0075,0.0154,0.022,0.0226,0.0293,0.0319,0.0358,0.0389,0.0296,0.0295,0.0294,0.0293,0,-0.0518,-0.054,-0.0578,-0.0578,-0.0565,-0.0562,-0.0544,-0.047,-0.0451,-0.0354,-0.0325,-0.0204,-0.0146,-0.0025,0.0126,0.0115,0.0289,0.0295,0.0414,0.0418,0.0421,0.0423,0.0395,0.0395,0.0395,0.0394,0.0394,0,-0.0577,-0.0607,-0.0613,-0.0636,-0.0675,-0.0632,-0.0642,-0.0596,-0.053,-0.051,-0.0376,-0.0326,-0.0141,-0.0012,0.0116,0.0303,0.029,0.042,0.0454,0.0403,0.0403,0.0369,0.0364,0.0398,0.0397,0.0396,0.0396,0,-0.0639,-0.0642,-0.0694,-0.0704,-0.0711,-0.0737,-0.0727,-0.0729,-0.0647,-0.0611,-0.0585,-0.0417,-0.0236,-0.0039,0.0168,0.029,0.0461,0.0525,0.0453,0.0478,0.0551,0.0543,0.0664,0.0666,0.0669,0.0671,0.0672,0,-0.0674,-0.0707,-0.0759,-0.0801,-0.081,-0.0838,-0.0859,-0.08,-0.0796,-0.0666,-0.0658,-0.0466,-0.0321,0.0024,0.0276,0.0533,0.0523,0.0632,0.0613,0.0561,0.0582,0.057,0.056,0.0592,0.0593,0.0593,0.0594,0,-0.0743,-0.0759,-0.0805,-0.0899,-0.0944,-0.0992,-0.101,-0.1019,-0.0936,-0.0883,-0.0771,-0.0635,-0.0266,0.0029,0.0388,0.0527,0.0592,0.0655,0.0633,0.0534,0.0503,0.052,0.051,0.06,0.0599,0.0599,0.0599,0.0598,-0.0788,-0.0844,-0.0913,-0.1,-0.1063,-0.1132,-0.1169,-0.1161,-0.1148,-0.1037,-0.0878,-0.0647,-0.0312,0.0192,0.0446,0.0682,0.0683,0.0725,0.0718,0.0712,0.069,0.0666,0.0787,0.0788,0.0788,0.0789,0.0789,0,-0.0847,-0.0916,-0.1011,-0.1115,-0.1208,-0.1216,-0.1264,-0.1278,-0.1268,-0.1104,-0.0957,-0.0592,-0.0208,0.0135,0.0524,0.0761,0.0726,0.0778,0.0686,0.068,0.0675,0.0646,0.0734,0.0735,0.0735,0.0735,0,0,-0.0883,-0.0987,-0.1046,-0.1221,-0.1295,-0.1393,-0.1423,-0.1414,-0.1322,-0.1176,-0.0977,-0.0663,-0.0217,0.0039,0.0349,0.0547,0.0536,0.0554,0.0575,0.0422,0.0413,0.0628,0.0576,0,0,0,0,0]}],[{"header":{"parameterUnit":"m.s-1","parameterCategory":2,"la1":30.2991,"la2":30.254,"lo1":-89.0895,"lo2":-89.0444,"dy":0.0017,"dx":0.0017,"nx":28,"ny":28,"refTime":"2024-10-04T21:00:00:Z","depth":"4","parameterNumber":2,"parameterNumberName":"U-component_of_CURRENTS"},"data":[0,0,0,0,0,0,0,0,0,0,0,0,0,0,0,0,0,0,0,0,0,0,0,0,0,0,0,0,0,0,0,0,0,0,0,0,0,0,0,0,0,0,0,0,0,0,0,0,0,0,0,0,0,0,0,0,0,0,-0.1471,-0.1472,0,-0.1527,-0.1527,-0.1527,-0.1556,-0.1556,-0.1557,-0.1557,-0.16,-0.1601,-0.1601,0,0,0,0,0,0,0,0,0,0,0,0,0,-0.137,-0.1371,-0.1471,-0.1472,-0.1473,-0.1527,-0.1527,-0.1528,-0.1556,-0.1556,-0.1557,-0.1557,-0.1599,-0.16,-0.1601,0,0,0,0,0,0,0,0,0,0,0,0,0,-0.1416,-0.1372,-0.1471,-0.1495,-0.1498,-0.1526,-0.1527,-0.1528,-0.1556,-0.1556,-0.1557,-0.1557,-0.1599,-0.16,-0.1602,-0.1602,0,0,-0.1606,-0.1606,0,0,0,0,0,0,0,0,-0.1413,-0.1419,-0.1491,-0.1494,-0.1497,-0.1537,-0.1507,-0.1553,-0.1556,-0.1531,-0.1557,-0.1557,-0.1579,-0.1582,-0.1588,-0.1604,-0.1606,-0.1606,-0.1607,-0.1607,-0.1608,0,0,0,0,0,0,0,-0.141,-0.1417,-0.149,-0.1492,-0.1496,-0.1497,-0.1504,-0.1516,-0.155,-0.1533,-0.1536,-0.1547,-0.158,-0.1587,-0.1589,-0.1606,-0.1606,-0.1607,-0.1608,-0.1608,-0.1697,-0.1699,0,0,0,0,0,0,-0.1409,-0.1414,-0.1488,-0.1492,-0.1458,-0.1499,-0.1507,-0.1522,-0.155,-0.1556,-0.1546,-0.1548,-0.1584,-0.1588,-0.1591,-0.1665,-0.1607,-0.1608,-0.1609,-0.1696,-0.1698,-0.1699,0,0,0,0,0,0,-0.1407,-0.1416,-0.1486,-0.1456,-0.1466,-0.1501,-0.1517,-0.1523,-0.1557,-0.156,-0.1565,-0.1578,-0.1585,-0.1589,-0.163,-0.1664,-0.1609,-0.161,-0.1694,-0.1696,-0.1699,-0.1768,0,0,0,0,0,0,-0.1404,-0.1414,-0.1437,-0.1456,-0.1467,-0.1526,-0.1517,-0.1524,-0.1562,-0.1565,-0.1589,-0.1592,-0.1585,-0.1628,-0.1631,-0.1665,-0.1611,-0.1692,-0.1695,-0.1698,-0.1764,-0.1772,-0.178,0,0,0,0,0,-0.14,-0.1426,-0.1438,-0.1448,-0.1494,-0.1528,-0.1534,-0.1558,-0.1564,-0.1588,-0.1604,-0.1593,-0.1649,-0.163,-0.1634,-0.1669,-0.1691,-0.1694,-0.1698,-0.176,-0.1771,-0.178,0,0,0,0,0,0,-0.1395,-0.1433,-0.1446,-0.1483,-0.1515,-0.1534,-0.1562,-0.1575,-0.1607,-0.1616,-0.1613,-0.1618,-0.1666,-0.1659,-0.1639,-0.1703,-0.1667,-0.1672,-0.1714,-0.1724,-0.1732,-0.173,-0.1612,0,0,0,0,0,-0.1404,-0.1435,-0.1468,-0.1501,-0.152,-0.1546,-0.1567,-0.1585,-0.1609,-0.1625,-0.1643,-0.166,-0.1679,-0.1695,-0.1709,-0.1746,-0.1735,-0.177,-0.1778,-0.1785,-0.1787,-0.1799,-0.1808,-0.1711,-0.1711,-0.1711,0,0,-0.1411,-0.1436,-0.1455,-0.1502,-0.1527,-0.1565,-0.156,-0.1604,-0.164,-0.1624,-0.1684,-0.1692,-0.1695,-0.1737,-0.1758,-0.1739,-0.1811,-0.179,-0.1796,-0.1794,-0.1803,-0.1812,-0.1821,-0.1713,-0.1713,-0.1713,0,0,-0.1433,-0.1465,-0.1497,-0.153,-0.1578,-0.1596,-0.1616,-0.1657,-0.1684,-0.1735,-0.1733,-0.1763,-0.1797,-0.1806,-0.1812,-0.1873,-0.1853,-0.1882,-0.1924,-0.1936,-0.1944,-0.195,-0.1962,-0.1969,-0.1886,-0.1887,-0.1887,0,-0.1443,-0.1486,-0.1513,-0.1553,-0.1586,-0.1615,-0.1658,-0.169,-0.174,-0.1766,-0.1766,-0.1823,-0.1827,-0.1871,-0.1891,-0.1892,-0.1893,-0.1887,-0.1946,-0.1952,-0.1958,-0.1967,-0.1974,-0.189,-0.189,-0.189,-0.1889,0,-0.148,-0.1528,-0.1551,-0.1611,-0.165,-0.1693,-0.1739,-0.1784,-0.1817,-0.1842,-0.1904,-0.1912,-0.194,-0.1953,-0.194,-0.1989,-0.1976,-0.1954,-0.1919,-0.1972,-0.1979,-0.1985,-0.1896,-0.1894,-0.1893,-0.1892,0,0,-0.1466,-0.156,-0.1571,-0.1611,-0.1686,-0.1718,-0.1788,-0.1851,-0.1897,-0.1944,-0.1998,-0.2031,-0.2033,-0.2039,-0.2035,-0.2048,-0.2091,-0.2023,-0.2022,-0.2031,-0.2123,-0.2009,-0.2004,-0.208,-0.2082,-0.2083,-0.2116,0,-0.1489,-0.1567,-0.1613,-0.1693,-0.1736,-0.1793,-0.1854,-0.1915,-0.1963,-0.2022,-0.2044,-0.209,-0.2068,-0.2086,-0.2098,-0.209,-0.2108,-0.2084,-0.2073,-0.2073,-0.1962,-0.2007,-0.2086,-0.212,-0.2121,-0.2122,-0.2123,0,-0.1503,-0.1556,-0.1637,-0.1736,-0.1762,-0.1818,-0.1914,-0.1973,-0.2055,-0.2093,-0.2139,-0.2154,-0.2191,-0.2159,-0.2179,-0.2166,-0.2153,-0.2144,-0.2144,-0.2014,-0.1969,-0.2054,-0.2133,-0.2132,-0.2132,-0.2131,-0.213,0,-0.146,-0.157,-0.1635,-0.167,-0.1786,-0.184,-0.1903,-0.1994,-0.2048,-0.2137,-0.2179,-0.222,-0.2247,-0.2241,-0.2224,-0.2206,-0.2238,-0.2206,-0.2097,-0.2089,-0.2151,-0.2143,-0.2223,-0.2223,-0.2223,-0.2223,-0.2222,0,-0.1446,-0.1503,-0.1626,-0.166,-0.1742,-0.183,-0.1918,-0.1987,-0.2085,-0.2144,-0.2207,-0.2245,-0.2269,-0.2286,-0.2256,-0.2193,-0.2263,-0.2109,-0.2089,-0.2181,-0.2177,-0.2155,-0.2147,-0.2224,-0.2224,-0.2223,-0.2223,0,-0.1382,-0.1467,-0.1546,-0.1678,-0.1723,-0.1779,-0.1918,-0.1973,-0.208,-0.2158,-0.2189,-0.2276,-0.2289,-0.2304,-0.23,-0.2223,-0.2182,-0.2146,-0.2262,-0.2247,-0.2019,-0.2014,-0.2016,-0.2012,-0.2009,-0.2006,-0.2004,0,-0.1354,-0.1389,-0.1533,-0.158,-0.1645,-0.1746,-0.1811,-0.1946,-0.2,-0.2156,-0.2175,-0.225,-0.2284,-0.2191,-0.2215,-0.2161,-0.2131,-0.2104,-0.2039,-0.2017,-0.1998,-0.1998,-0.1998,-0.1999,-0.1998,-0.1997,-0.1996,0,-0.129,-0.1352,-0.1415,-0.1503,-0.1584,-0.1668,-0.1771,-0.1803,-0.1953,-0.2073,-0.2106,-0.2111,-0.2133,-0.211,-0.2092,-0.2049,-0.2112,-0.207,-0.2075,-0.2014,-0.1996,-0.1981,-0.1984,-0.1985,-0.1987,-0.1988,-0.1988,0,-0.1239,-0.1259,-0.134,-0.1407,-0.1503,-0.1554,-0.1631,-0.1701,-0.1774,-0.1949,-0.1956,-0.2035,-0.2123,-0.2054,-0.2035,-0.1987,-0.1941,-0.1865,-0.188,-0.1892,-0.1832,-0.179,-0.1701,0,0,0,0,0,-0.1176,-0.1183,-0.1235,-0.1301,-0.139,-0.1442,-0.1585,-0.1665,-0.1818,-0.1797,-0.1873,-0.1885,-0.187,-0.1908,-0.1824,-0.1961,-0.194,-0.1856,-0.1859,-0.1924,-0.1936,-0.1873,0,0,0,0,0,0,-0.1134,-0.1175,-0.119,-0.1193,-0.1214,-0.1297,-0.1385,-0.1497,-0.1496,-0.1654,-0.1648,-0.1763,-0.1763,-0.1874,-0.1778,-0.1788,-0.1752,-0.191,-0.1905,-0.1916,-0.1928,-0.1938,-0.1878,0,0,0,0,0]},{"header":{"parameterUnit":"m.s-1","parameterCategory":2,"la1":30.2991,"la2":30.254,"lo1":-89.0895,"lo2":-89.0444,"dy":0.0017,"dx":0.0017,"nx":28,"ny":28,"refTime":"2024-10-04T21:00:00:Z","depth":"4","parameterNumber":3,"parameterNumberName":"V-component_of_CURRENTS"},"data":[0,0,0,0,0,0,0,0,0,0,0,0,0,0,0,0,0,0,0,0,0,0,0,0,0,0,0,0,0,0,0,0,0,0,0,0,0,0,0,0,0,0,0,0,0,0,0,0,0,0,0,0,0,0,0,0,0,0,-0.0127,-0.0127,0,-0.0074,-0.0073,-0.0073,-0.0036,-0.0036,-0.0036,-0.0036,0.0047,0.0049,0.0051,0,0,0,0,0,0,0,0,0,0,0,0,0,-0.015,-0.015,-0.0127,-0.0127,-0.0126,-0.0074,-0.0073,-0.0073,-0.0036,-0.0036,-0.0036,-0.0036,0.0046,0.0049,0.0051,0,0,0,0,0,0,0,0,0,0,0,0,0,-0.0122,-0.015,-0.0128,-0.0102,-0.01,-0.0074,-0.0073,-0.0072,-0.0037,-0.0036,-0.0036,-0.0036,0.0046,0.0049,0.0052,0.0064,0,0,0.0061,0.0062,0,0,0,0,0,0,0,0,-0.0124,-0.0121,-0.0107,-0.0104,-0.0101,-0.0062,-0.0051,-0.0025,-0.0037,-0.006,-0.0036,-0.0035,0.0013,0.0018,0.0028,0.0068,0.0072,0.0061,0.0063,0.0064,0.0065,0,0,0,0,0,0,0,-0.0126,-0.0123,-0.0106,-0.0106,-0.0103,-0.0077,-0.0073,-0.0046,-0.0025,-0.0058,-0.0055,-0.005,0.0015,0.0025,0.0031,0.0073,0.0061,0.0064,0.0066,0.0067,0.0138,0.0138,0,0,0,0,0,0,-0.0137,-0.0125,-0.0107,-0.0104,-0.0113,-0.0077,-0.0073,-0.0074,-0.0026,-0.0018,-0.0051,-0.0049,0.002,0.0027,0.0034,0.0053,0.0064,0.0067,0.0069,0.0138,0.0138,0.0138,0,0,0,0,0,0,-0.0137,-0.0136,-0.0109,-0.0113,-0.0108,-0.0078,-0.0079,-0.0074,-0.0063,-0.0021,-0.0013,-0.0046,0.002,0.0029,0.0058,0.0057,0.0068,0.0071,0.0138,0.0138,0.0138,0.0091,0,0,0,0,0,0,-0.0138,-0.0137,-0.0142,-0.0115,-0.0109,-0.0101,-0.0079,-0.0073,-0.0061,-0.0058,-0.0014,-0.0006,0.0021,0.0053,0.0061,0.0061,0.0074,0.0138,0.0138,0.0138,0.0093,0.009,0.0087,0,0,0,0,0,-0.0139,-0.015,-0.0143,-0.014,-0.0117,-0.0102,-0.0096,-0.0072,-0.0061,-0.0061,-0.0028,-0.0007,0.0059,0.0055,0.0065,0.0066,0.0138,0.0138,0.0138,0.0094,0.009,0.0087,0,0,0,0,0,0,-0.0164,-0.0147,-0.0138,-0.0144,-0.0127,-0.0096,-0.0094,-0.0076,-0.0051,-0.0047,-0.0006,0.0004,0.0028,0.0054,0.0048,0.0087,0.0102,0.0104,0.0065,0.0062,0.006,0.0048,0.0076,0,0,0,0,0,-0.0173,-0.0177,-0.0153,-0.0159,-0.0152,-0.0124,-0.0114,-0.0099,-0.0072,-0.0061,-0.0029,0.0006,0.0036,0.0054,0.0082,0.0104,0.0136,0.0111,0.0108,0.0106,0.0103,0.0152,0.0153,0.0139,0.0139,0.0139,0,0,-0.0185,-0.0176,-0.0179,-0.0165,-0.015,-0.0147,-0.0117,-0.0109,-0.0102,-0.0055,-0.0038,-0.0004,0.0039,0.0063,0.0076,0.0084,0.0127,0.0106,0.0103,0.0102,0.0152,0.0154,0.0155,0.0139,0.0139,0.0139,0,0,-0.0213,-0.0203,-0.0216,-0.0204,-0.0186,-0.0167,-0.0167,-0.0137,-0.012,-0.0099,-0.0063,-0.0029,0.0013,0.0047,0.0069,0.0069,0.0109,0.0077,0.0057,0.0104,0.0106,0.0107,0.0147,0.0153,0.0078,0.0078,0.0077,0,-0.023,-0.0241,-0.0217,-0.0223,-0.0219,-0.018,-0.019,-0.0166,-0.013,-0.0114,-0.0101,-0.0027,0.0007,0.0045,0.0044,0.0063,0.0094,0.0064,0.01,0.0102,0.0105,0.0146,0.0153,0.0075,0.0076,0.0076,0.0076,0,-0.0262,-0.0272,-0.0278,-0.0274,-0.0264,-0.0266,-0.0233,-0.0216,-0.0189,-0.0161,-0.0119,-0.0066,-0.0021,-0.0004,0.002,0.0055,0.0072,0.0088,0.0105,0.0104,0.0147,0.0155,0.0072,0.0073,0.0074,0.0074,0,0,-0.0297,-0.0302,-0.0305,-0.0316,-0.0292,-0.0291,-0.0275,-0.0249,-0.0237,-0.019,-0.0166,-0.0108,-0.0072,-0.0045,-0.0003,0.0039,0.0082,0.0065,0.0069,0.01,0.0184,0.0177,0.0186,0.0105,0.0106,0.0107,0.0205,0,-0.0332,-0.0365,-0.035,-0.0376,-0.0389,-0.035,-0.0341,-0.0309,-0.0268,-0.0232,-0.0163,-0.0127,-0.0089,-0.0067,-0.0018,0.0058,0.0102,0.0054,0.0186,0.0189,0.018,0.0194,0.0111,0.0211,0.0213,0.0215,0.0216,0,-0.0365,-0.0385,-0.0421,-0.0433,-0.0434,-0.0439,-0.0414,-0.0399,-0.0332,-0.0298,-0.0238,-0.018,-0.0107,-0.0078,0.0055,0.0022,0.0095,0.0155,0.0161,0.0176,0.0198,0.0216,0.0231,0.023,0.0229,0.0228,0.0227,0,-0.0404,-0.0432,-0.0467,-0.0471,-0.0473,-0.0479,-0.0472,-0.0422,-0.041,-0.0336,-0.0312,-0.0213,-0.0163,-0.0057,0.0073,0.0064,0.0222,0.0228,0.0293,0.0294,0.029,0.0287,0.0319,0.0319,0.0319,0.0319,0.0318,0,-0.044,-0.0469,-0.0493,-0.0513,-0.0554,-0.053,-0.0548,-0.0517,-0.0472,-0.0457,-0.0353,-0.0309,-0.0156,-0.0044,0.0068,0.0209,0.0224,0.0293,0.032,0.0268,0.0261,0.0296,0.0292,0.0322,0.0321,0.0321,0.032,0,-0.0471,-0.0487,-0.0536,-0.0562,-0.0577,-0.0603,-0.0617,-0.0621,-0.0564,-0.0537,-0.0516,-0.0379,-0.023,-0.0069,0.0115,0.0196,0.0335,0.0382,0.0316,0.0337,0.0374,0.0367,0.0455,0.0455,0.0456,0.0456,0.0457,0,-0.0488,-0.0516,-0.0582,-0.0624,-0.0643,-0.068,-0.0705,-0.0675,-0.0673,-0.0575,-0.0565,-0.0413,-0.0308,-0.005,0.0119,0.0341,0.0366,0.0433,0.0399,0.0371,0.039,0.0381,0.0373,0.0458,0.0458,0.0458,0.0458,0,-0.0519,-0.0547,-0.0589,-0.0681,-0.0732,-0.0784,-0.0813,-0.0814,-0.0762,-0.0716,-0.0599,-0.0441,-0.0268,-0.0061,0.012,0.0276,0.0386,0.0439,0.0438,0.0407,0.0376,0.0391,0.0383,0.046,0.046,0.0459,0.0459,0,-0.0541,-0.0583,-0.065,-0.0725,-0.0803,-0.0862,-0.0869,-0.0853,-0.0836,-0.0718,-0.068,-0.0465,-0.0339,-0.0092,0.0075,0.0231,0.0257,0.0288,0.0295,0.0295,0.0219,0.0154,0.0197,0,0,0,0,0,-0.0555,-0.0609,-0.069,-0.0776,-0.0856,-0.0903,-0.0931,-0.092,-0.0865,-0.0799,-0.0737,-0.0568,-0.0291,-0.0158,-0.0008,0.0071,0.0274,0.0251,0.031,0.047,0.0468,0.0405,0,0,0,0,0,0,-0.0569,-0.0644,-0.0692,-0.0805,-0.0871,-0.0954,-0.0976,-0.094,-0.0891,-0.0809,-0.0663,-0.0555,-0.0289,-0.0387,-0.0014,0.0039,0.0091,0.0391,0.0394,0.0471,0.0469,0.0468,0.0402,0,0,0,0,0]}]]